Find Starlink 3852

NORAD ID: 52345 Int'l Des: 2022-045 Owner: SPXS Country: US Constellation: starlink operational
LEOCIRCULAR

当前视图

正在加载3D地球...

About Starlink 3852

Starlink 3852 (NORAD 52345) is a starlink constellation satellite (v1.5) launched Apr 29, 2022 by SPXS of US. It operates in LEO, CIRCULAR orbit with a mass of 297.00 kg.

关于 Starlink 3852

正在加载描述...

即将过境

Passes for default location (London). Set your location on the main map for personalized predictions.

高度历史

Loading altitude history...

两行轨道根数

1 52345U 22045Q 26164.19336584 -.00000314 00000-0 -16484-5 0 9998
2 52345 53.1605 130.4825 0001338 85.9829 274.1316 15.08831905230188
Epoch: Jun 13, 2026 • Age: 10 hours

当前状态

高度 545.1 km
速度 7.60 km/s
星下点 51.79°N, 116.14°E
发射日期 Apr 29, 2022
运行时间 4.1 years
类型 internet

技术详情

分类 Payload
质量 297.00 kg
干质量 275.00 kg
总质量 297.00 kg
长度 0.20 m
直径 2.80 m
跨度 9.00 m
形状 Box + pan
制造商 SPXS
平台类型 Starlink
阶段状态 In Orbit
所有者/国家 SPXS/US

Most Searched